This demonstration page uses our WeatherBlox Daily Observations layout. Learn more.

39.08367, -84.50855

Hourly Observations for January 16, 2020

Temp ( °F °C ) Dew Point ( °F °C ) Humidity (%) Winds ( mph kmh ) Pressure ( in mb ) Visibility ( mi km ) Precip ( " mm )
12:53 am 00:53 Cloudy 48 8.9 41 5 77 77 NW 6 9 30.21 1023 10 16.0934 0 0
1:53 am 01:53 Cloudy 47 8.3 40 4.4 77 77 NW 13 20 30.25 1024 10 16.0934 0 0
2:53 am 02:53 Cloudy 43 6.1 37 2.8 80 80 NW 10 17 30.3 1026 10 16.0934 0 0
3:53 am 03:53 Cloudy 42 5.6 34 1.1 73 73 VRB 5 7 30.34 1027 10 16.0934 0 0
4:53 am 04:53 Cloudy 41 5 33 0.6 73 73 WNW 9 15 30.37 1029 10 16.0934 0 0
5:53 am 05:53 Cloudy 40 4.4 30 -1.1 68 68 NNW 10 17 30.4 1029 10 16.0934 0 0
6:53 am 06:53 Cloudy 39 3.9 29 -1.7 67 67 NW 13 20 30.44 1031 10 16.0934 0 0
7:53 am 07:53 Cloudy 38 3.3 29 -1.7 70 70 W 9 15 30.47 1032 10 16.0934 0 0
8:53 am 08:53 Mostly Cloudy 37 2.8 27 -2.8 67 67 WNW 10 17 30.5 1033 10 16.0934 0 0
9:53 am 09:53 Cloudy 37 2.8 28 -2.2 70 70 W 8 13 30.51 1033 10 16.0934 0 0
10:53 am 10:53 Mostly Cloudy 38 3.3 26 -3.3 62 62 WNW 14 22 30.56 1035 10 16.0934 0 0
11:53 am 11:53 Mostly Cloudy 39 3.9 26 -3.3 60 60 W 18 30 30.56 1035 10 16.0934 0 0
12:53 pm 12:53 Mostly Sunny 40 4.4 23 -5 51 51 WNW 10 17 30.55 1035 10 16.0934 0 0
1:53 pm 13:53 Sunny 41 5 22 -5.6 47 47 NNW 14 22 30.55 1035 10 16.0934 0 0
2:53 pm 14:53 Sunny 42 5.6 20 -6.7 41 41 NNW 16 26 30.55 1035 10 16.0934 0 0
3:53 pm 15:53 Sunny 42 5.6 20 -6.7 41 41 WNW 8 13 30.57 1035 10 16.0934 0 0
4:53 pm 16:53 Sunny 39 3.9 19 -7.2 45 45 VRB 6 9 30.59 1036 10 16.0934 0 0
5:53 pm 17:53 Clear 36 2.2 16 -8.9 44 44 NNW 9 15 30.62 1037 10 16.0934 0 0
6:53 pm 18:53 Clear 34 1.1 18 -7.8 52 52 NNW 7 11 30.65 1038 10 16.0934 0 0
7:53 pm 19:53 Clear 32 0 19 -7.2 59 59 VRB 7 11 30.69 1039 10 16.0934 0 0
8:53 pm 20:53 Clear 30 -1.1 19 -7.2 64 64 NW 8 13 30.71 1040 10 16.0934 0 0
9:53 pm 21:53 Clear 29 -1.7 19 -7.2 66 66 N 10 17 30.73 1041 10 16.0934 0 0
10:53 pm 22:53 Mostly Clear 28 -2.2 18 -7.8 66 66 N 8 13 30.75 1041 10 16.0934 0 0
11:51 pm 23:51 Mostly Cloudy 27 -3 18 -8 69 69 N 7 11 30.78 1042 10 16.0934 0 0
11:53 pm 23:53 Mostly Cloudy 27 -2.8 18 -7.8 69 69 N 6 9 30.75 1041 10 16.0934 0 0

Powered by AerisWeather